• Join FlightAware (Why Join?)
  • Login
  • US Flag 
06:08AM EST


 

Airport Tracker/Info


-or-


 

Live Flight TrackerFlight Track Log ✈ NKS331 ✈ 02-May-2013 ✈ KLGA - KORD

Flight Track Log - Related Links

Times and Time Zones

All times are in EDT time to prevent confusion due to time zone crossing. See the NKS331 flight status page for this flight to view local times or setup timezone preferences in your user account.

Time Position Orientation Groundspeed Altitude Reporting Facility
EDT Latitude Longitude Course Direction KTS MPH feet Rate Location/Type
10:20PM 40.7580 -73.8430 112° Southeast 161 185 1,100  Level FlightAware
10:21PM 40.7460 -73.8390 166° South 179 206 1,500 1,600 Climbing FlightAware
10:21PM 40.7370 -73.8270 135° Southeast 188 216 1,900 1,680 Climbing FlightAware
10:21PM 40.7360 -73.8180 98° East 191 220 2,200 2,400 Climbing FlightAware
10:21PM 40.7460 -73.7970 58° Northeast 204 235 3,100 2,000 Climbing FlightAware
10:22PM 40.7700 -73.7820 25° Northeast 236 272 3,700 1,855 Climbing FlightAware
10:22PM 40.8030 -73.7670 19° North 265 305 4,800 2,945 Climbing FlightAware
10:23PM 40.8300 -73.7820 337° Northwest 266 306 6,400 3,491 Climbing FlightAware
10:23PM 40.8530 -73.8240 306° West 273 314 8,000 2,400 Climbing FlightAware
10:24PM 40.8700 -73.8610 301° West 282 325 8,600 655 Climbing FlightAware
10:24PM 40.8910 -73.9030 303° West 283 326 8,600  Level FlightAware
10:24PM 40.8977 -73.9151 306° West 284 327 8,600  Level FlightAware ADS-B
10:24PM 40.9088 -73.9374 303° West 285 328 8,600  Level FlightAware ADS-B
10:25PM 40.9093 -73.9383 306° West 285 328 8,600 1,875 Level FlightAware ADS-B
10:25PM 40.9200 -73.9598 303° West 283 326 9,100 1,875 Climbing FlightAware ADS-B
10:25PM 40.9207 -73.9611 305° West 284 327 9,100 3,000 Level FlightAware ADS-B
10:25PM 40.9320 -73.9842 303° West 288 331 9,900 2,483 Climbing FlightAware ADS-B
10:25PM 40.9420 -74.0049 303° West 299 344 10,300 1,714 Climbing FlightAware ADS-B
10:25PM 40.9463 -74.0161 297° West 307 353 10,500 1,800 Climbing FlightAware ADS-B
10:25PM 40.9484 -74.0222 295° West 313 360 10,600 1,200 Climbing FlightAware ADS-B
10:26PM 40.9523 -74.0345 293° West 321 369 10,700 1,333 Climbing FlightAware ADS-B
10:26PM 40.9536 -74.0388 292° West 325 374 10,800 968 Climbing FlightAware ADS-B
10:26PM 40.9696 -74.0939 291° West 359 413 11,200 1,277 Climbing FlightAware ADS-B
10:26PM 40.9805 -74.1318 291° West 370 426 11,800 2,000 Climbing FlightAware ADS-B
10:27PM 40.9877 -74.1574 290° West 375 432 12,200 2,516 Climbing FlightAware ADS-B
10:27PM 40.9996 -74.1996 290° West 376 433 13,100 3,000 Climbing FlightAware ADS-B
10:27PM 41.0059 -74.2224 290° West 372 428 13,700 2,625 Climbing FlightAware ADS-B
10:27PM 41.0182 -74.2667 290° West 376 433 14,500 2,200 Climbing FlightAware ADS-B
10:28PM 41.0241 -74.2878 290° West 380 437 14,800 2,167 Climbing FlightAware ADS-B
10:28PM 41.0403 -74.3463 290° West 383 441 15,800 2,364 Climbing FlightAware ADS-B
10:28PM 41.0442 -74.3606 290° West 385 443 16,100 2,432 Climbing FlightAware ADS-B
10:29PM 41.0625 -74.4269 290° West 384 442 17,300 2,294 Climbing FlightAware ADS-B
10:29PM 41.0645 -74.4338 291° West 382 440 17,400 1,742 Climbing FlightAware ADS-B
10:29PM 41.0820 -74.4971 290° West 396 456 18,200 1,800 Climbing FlightAware ADS-B
10:29PM 41.0837 -74.5032 290° West 396 456 18,300 1,800 Climbing FlightAware ADS-B
10:30PM 41.1010 -74.5660 290° West 403 464 19,100 2,118 Climbing FlightAware ADS-B
10:30PM 41.1156 -74.6193 290° West 398 458 20,100 2,400 Climbing FlightAware ADS-B
10:30PM 41.1202 -74.6357 290° West 399 459 20,300 1,565 Climbing FlightAware ADS-B
10:30PM 41.1312 -74.6735 291° West 404 465 20,700 1,655 Climbing FlightAware ADS-B
10:31PM 41.1405 -74.7007 294° West 404 465 21,100 1,875 Climbing FlightAware ADS-B
10:31PM 41.1573 -74.7427 298° West 401 461 21,700 1,560 Climbing FlightAware ADS-B
10:31PM 41.1869 -74.8101 300° West 408 470 22,400 1,672 Climbing FlightAware ADS-B
10:32PM 41.2150 -74.8749 300° West 406 467 23,400 1,574 Climbing FlightAware ADS-B
10:32PM 41.2441 -74.9422 300° West 413 475 24,000 1,238 Climbing FlightAware ADS-B
10:33PM 41.2740 -75.0114 300° West 418 481 24,700 1,258 Climbing FlightAware ADS-B
10:34PM 41.3033 -75.0791 300° West 424 488 25,300 1,082 Climbing FlightAware ADS-B
10:34PM 41.3336 -75.1495 300° West 430 495 25,800 1,082 Climbing FlightAware ADS-B
10:35PM 41.3636 -75.2193 300° West 435 501 26,400 1,200 Climbing FlightAware ADS-B
10:35PM 41.3939 -75.2900 300° West 441 507 27,000 1,400 Climbing FlightAware ADS-B
10:36PM 41.4242 -75.3608 300° West 439 505 27,800 1,180 Climbing FlightAware ADS-B
10:36PM 41.4552 -75.4337 300° West 445 512 28,200 750 Climbing FlightAware ADS-B
10:36PM 41.4712 -75.4735 298° West 449 517 28,400 1,000 Climbing FlightAware ADS-B
10:37PM 41.4825 -75.5065 295° West 450 518 28,700 1,333 Climbing FlightAware ADS-B
10:37PM 41.5066 -75.5889 291° West 448 516 29,400 1,333 Climbing FlightAware ADS-B
10:38PM 41.5294 -75.6683 291° West 447 514 30,100 1,377 Climbing FlightAware ADS-B
10:38PM 41.5516 -75.7457 291° West 443 510 30,800 1,400 Climbing FlightAware ADS-B
10:39PM 41.5737 -75.8233 291° West 441 507 31,500 1,377 Climbing FlightAware ADS-B
10:39PM 41.5954 -75.8996 291° West 438 504 32,200 1,180 Climbing FlightAware ADS-B
10:40PM 41.6169 -75.9756 291° West 439 505 32,700 984 Climbing FlightAware ADS-B
10:40PM 41.6394 -76.0552 291° West 439 505 33,200 968 Climbing FlightAware ADS-B
10:41PM 41.6614 -76.1331 291° West 439 505 33,700 787 Climbing FlightAware ADS-B
10:41PM 41.6828 -76.2095 291° West 434 499 34,000 500 Climbing FlightAware ADS-B
10:42PM 41.7039 -76.2848 291° West 438 504 34,200 774 Climbing FlightAware ADS-B
10:42PM 41.7265 -76.3655 291° West 436 502 34,800 952 Climbing FlightAware ADS-B
10:43PM 41.7485 -76.4440 291° West 435 501 35,200 871 Climbing FlightAware ADS-B
10:43PM 41.7701 -76.5220 290° West 434 499 35,700 750 Climbing FlightAware ADS-B
10:44PM 41.7929 -76.6048 290° West 427 491 36,000 212 Climbing FlightAware ADS-B
10:45PM 41.8260 -76.7260 290° West 430 495 36,000  Level FlightAware
10:45PM 41.8590 -76.8430 291° West 431 496 36,000  Level FlightAware
10:46PM 41.8800 -76.9210 290° West 429 494 36,000  Level FlightAware
10:47PM 41.9130 -77.0420 290° West 428 493 36,000  Level FlightAware
10:47PM 41.9390 -77.1410 289° West 427 491 36,000  Level FlightAware
10:48PM 41.9690 -77.2520 290° West 427 491 36,000  Level FlightAware
10:49PM 41.9960 -77.3500 290° West 428 493 36,000  Level FlightAware
10:50PM 42.0230 -77.4520 290° West 429 494 36,000  Level FlightAware
10:50PM 42.0530 -77.5650 290° West 432 497 36,000  Level FlightAware
10:51PM 42.0800 -77.6670 290° West 433 498 36,000  Level FlightAware
10:52PM 42.1090 -77.7780 289° West 433 498 36,000  Level FlightAware
10:52PM 42.1370 -77.8820 290° West 433 498 36,000  Level FlightAware
10:53PM 42.1630 -77.9830 289° West 433 498 36,000  Level FlightAware
10:54PM 42.1930 -78.0980 289° West 432 497 36,000  Level FlightAware
10:54PM 42.2200 -78.2000 290° West 432 497 36,000  Level FlightAware
10:55PM 42.2490 -78.3160 289° West 432 497 36,000  Level FlightAware
10:56PM 42.2750 -78.4160 289° West 432 497 36,000  Level FlightAware
10:57PM 42.3000 -78.5150 289° West 431 496 36,000  Level FlightAware
10:57PM 42.3300 -78.6330 289° West 431 496 36,000  Level FlightAware
10:58PM 42.3560 -78.7350 289° West 431 496 36,000  Level FlightAware
10:59PM 42.3850 -78.8500 289° West 432 497 36,000  Level FlightAware
10:59PM 42.4100 -78.9490 289° West 433 498 36,000  Level FlightAware
11:00PM 42.4360 -79.0530 289° West 435 501 36,000  Level FlightAware
11:01PM 42.4650 -79.1710 288° West 434 499 36,000  Level FlightAware
11:01PM 42.4870 -79.2740 286° West 432 497 36,000  Level FlightAware
11:02PM 42.4970 -79.3940 276° West 429 494 36,000  Level FlightAware
11:03PM 42.5020 -79.5000 274° West 428 493 36,000  Level FlightAware
11:04PM 42.5070 -79.6050 274° West 426 490 36,000  Level FlightAware
11:04PM 42.5130 -79.7240 274° West 424 488 36,000  Level FlightAware
11:05PM 42.5180 -79.8320 274° West 423 487 36,000  Level FlightAware
11:06PM 42.5230 -79.9510 273° West 422 486 36,000  Level FlightAware
11:06PM 42.5280 -80.0550 274° West 424 488 36,000  Level FlightAware
11:07PM 42.5330 -80.1780 273° West 427 491 36,000  Level FlightAware
11:08PM 42.5380 -80.2840 274° West 429 494 36,000  Level FlightAware
11:08PM 42.5420 -80.3920 273° West 432 497 36,000  Level FlightAware
11:09PM 42.5470 -80.5110 273° West 434 499 36,000  Level FlightAware
11:10PM 42.5510 -80.6090 273° West 436 502 36,000  Level FlightAware
11:10PM 42.5550 -80.7160 273° West 436 502 36,000  Level FlightAware
11:11PM 42.5590 -80.8410 273° West 434 499 36,000  Level FlightAware
11:12PM 42.5620 -80.9400 272° West 433 498 36,000  Level FlightAware
11:13PM 42.5630 -81.0550 271° West 432 497 36,000  Level FlightAware
11:13PM 42.5630 -81.1780 270° West 432 497 36,000  Level FlightAware
11:14PM 42.5640 -81.2850 271° West 433 498 36,000  Level FlightAware
11:15PM 42.5650 -81.3950 271° West 434 499 36,000  Level FlightAware
11:15PM 42.5650 -81.5100 270° West 435 501 36,000  Level FlightAware
11:16PM 42.5660 -81.6160 271° West 436 502 36,000  Level FlightAware
11:17PM 42.5660 -81.7990 270° West 436 502 36,000  Level FlightAware
11:18PM 42.5670 -81.8950 271° West 435 501 36,000  Level FlightAware
11:18PM 42.5670 -81.9920 270° West 435 501 36,000  Level FlightAware
11:20PM 42.5670 -82.2530 270° West 435 501 36,000  Level FlightAware
11:20PM 42.5660 -82.3390 269° West 435 501 36,000  Level FlightAware
11:21PM 42.5660 -82.4310 270° West 436 502 36,000  Level FlightAware
11:22PM 42.5660 -82.5720 270° West 433 498 36,000  Level FlightAware
11:23PM 42.5650 -82.6730 269° West 433 498 36,000  Level FlightAware
11:23PM 42.5640 -82.7960 269° West 434 499 36,000  Level FlightAware
11:24PM 42.5640 -82.9030 270° West 435 501 36,000  Level FlightAware
11:25PM 42.5630 -83.0160 269° West 436 502 36,000  Level FlightAware
11:25PM 42.5620 -83.1470 269° West 437 503 36,000  Level FlightAware
11:26PM 42.5610 -83.2460 269° West 437 503 36,000  Level FlightAware
11:27PM 42.5600 -83.3690 269° West 437 503 36,000  Level FlightAware
11:27PM 42.5580 -83.4750 269° West 436 502 36,000  Level FlightAware
11:28PM 42.5560 -83.5990 269° West 437 503 36,000  Level FlightAware
11:29PM 42.5550 -83.7110 269° West 438 504 36,000  Level FlightAware
11:30PM 42.5540 -83.8200 269° West 438 504 36,000  Level FlightAware
11:30PM 42.5520 -83.9260 269° West 439 505 36,000  Level FlightAware
11:31PM 42.5500 -84.0530 269° West 438 504 36,000  Level FlightAware
11:32PM 42.5480 -84.1720 269° West 436 502 36,000  Level FlightAware
11:32PM 42.5460 -84.2830 269° West 435 501 36,000  Level FlightAware
11:33PM 42.5430 -84.3950 268° West 435 501 36,000  Level FlightAware
11:34PM 42.5410 -84.5040 269° West 434 499 36,000 -212 Level FlightAware
11:34PM 42.5380 -84.6410 268° West 433 498 35,700 -667 Descending FlightAware
11:35PM 42.5350 -84.7690 268° West 433 498 35,000 -988 Descending FlightAware
11:36PM 42.5320 -84.8810 268° West 436 502 34,300 -988 Descending FlightAware
11:37PM 42.5290 -84.9990 268° West 439 505 33,600 -918 Descending FlightAware
11:37PM 42.5270 -85.1060 269° West 441 507 33,000 -975 Descending FlightAware
11:38PM 42.5230 -85.2240 267° West 440 506 32,300 -706 Descending FlightAware
11:39PM 42.5200 -85.3420 268° West 440 506 32,000 -212 Descending FlightAware
11:39PM 42.5170 -85.4580 268° West 440 506 32,000  Level FlightAware
11:40PM 42.5130 -85.5790 267° West 438 504 32,000  Level FlightAware
11:41PM 42.5100 -85.6900 268° West 439 505 32,000  Level FlightAware
11:41PM 42.5060 -85.7950 267° West 439 505 32,000 -1,200 Level FlightAware
11:42PM 42.5020 -85.9190 268° West 439 505 30,300 -3,176 Descending FlightAware
11:43PM 42.4980 -86.0300 267° West 457 526 27,500 -3,671 Descending FlightAware
11:44PM 42.4940 -86.1550 268° West 453 521 25,100 -3,106 Descending FlightAware
11:44PM 42.4900 -86.2750 267° West 442 509 23,100 -3,035 Descending FlightAware
11:45PM 42.4850 -86.4000 267° West 438 504 20,800 -2,824 Descending FlightAware
11:46PM 42.4810 -86.5070 267° West 424 488 19,100 -2,400 Descending FlightAware
11:46PM 42.4770 -86.6080 267° West 411 473 17,600 -2,541 Descending FlightAware
11:47PM 42.4720 -86.7240 267° West 404 465 15,500 -3,247 Descending FlightAware
11:48PM 42.4680 -86.8250 267° West 416 479 13,000 -3,000 Descending FlightAware
11:48PM 42.4630 -86.9290 266° West 392 451 11,500 -2,188 Descending FlightAware
11:49PM 42.4590 -87.0360 267° West 376 433 9,900 -1,457 Descending FlightAware
11:50PM 42.4570 -87.0910 267° West 358 412 9,800 -300 Descending FlightAware
11:50PM 42.4520 -87.1260 259° West 355 409 9,700  Descending FlightAware
11:50PM 42.4350 -87.1880 250° West 351 404 9,800 109 Climbing FlightAware
11:51PM 42.4200 -87.2410 249° West 352 405 9,800  Level FlightAware
11:51PM 42.4120 -87.2700 250° West 351 404 9,800  Level FlightAware
11:52PM 42.3950 -87.3310 249° West 348 400 9,800  Level FlightAware
11:52PM 42.3780 -87.3920 249° West 346 398 9,800  Level FlightAware
11:52PM 42.3640 -87.4420 249° West 345 397 9,800  Level FlightAware
11:53PM 42.3470 -87.5050 250° West 345 397 9,800  Level FlightAware
11:53PM 42.3260 -87.5480 237° Southwest 343 395 9,800  Level FlightAware
11:54PM 42.2890 -87.5880 219° Southwest 341 392 9,800  Level FlightAware
11:54PM 42.2510 -87.6270 217° Southwest 344 396 9,800  Level FlightAware
11:55PM 42.2190 -87.6610 218° Southwest 344 396 9,800  Level FlightAware
11:55PM 42.1810 -87.7000 217° Southwest 342 394 9,800  Level FlightAware
11:56PM 42.1510 -87.7320 218° Southwest 323 372 9,800 -109 Level FlightAware
11:56PM 42.1180 -87.7670 218° Southwest 292 336 9,700 -700 Descending FlightAware
11:57PM 42.0930 -87.8070 230° Southwest 289 333 9,100 -1,200 Descending FlightAware
11:57PM 42.0910 -87.8240 261° West 293 337 8,900 -1,500 Descending FlightAware
11:57PM 42.0910 -87.8800 270° West 294 338 8,100 -1,418 Descending FlightAware
11:58PM 42.0920 -87.9240 272° West 291 335 7,600 -982 Descending FlightAware
11:58PM 42.0920 -87.9740 270° West 275 316 7,200 -640 Descending FlightAware
11:59PM 42.0920 -88.0510 270° West 251 289 6,800 -686 Descending FlightAware
11:59PM 42.0920 -88.0880 270° West 242 278 6,400 -1,050 Descending FlightAware
12:00AM 42.0920 -88.1110 270° West 241 277 6,100 -1,650 Descending FlightAware
12:00AM 42.0910 -88.1470 268° West 245 282 5,300 -1,950 Descending FlightAware
12:00AM 42.0860 -88.1700 254° West 230 265 4,800 -1,800 Descending FlightAware
12:01AM 42.0750 -88.1820 219° Southwest 216 249 4,400 -1,800 Descending FlightAware
12:01AM 42.0600 -88.1860 191° South 206 237 3,900 -900 Descending FlightAware
12:01AM 42.0380 -88.1860 180° South 189 217 3,800 -109 Descending FlightAware
12:02AM 42.0120 -88.1860 180° South 178 205 3,800  Level FlightAware
12:02AM 41.9870 -88.1710 156° South 163 188 3,800 -171 Level FlightAware
12:03AM 41.9820 -88.1410 103° East 165 190 3,600 -700 Descending FlightAware
12:03AM 41.9730 -88.1120 113° Southeast 159 183 3,100 -933 Descending FlightAware
12:04AM 41.9700 -88.0980 106° East 163 188 2,900 -750 Descending FlightAware
12:04AM 41.9690 -88.0740 93° East 165 190 2,600 -764 Descending FlightAware
12:05AM 41.9690 -88.0460 90° East 159 183 2,200 -873 Descending FlightAware
12:05AM 41.9690 -88.0200 90° East 137 158 1,800 -764 Descending FlightAware
12:06AM 41.9690 -87.9980 90° East 133 153 1,500 -700 Descending FlightAware
12:06AM 41.9690 -87.9720 90° East 134 154 1,100 -840 Descending FlightAware
12:06AM 41.9690 -87.9550 90° East 134 154 800 -700 Descending FlightAware
12:07AM 41.9690 -87.9220 90° East 136 157 400 -600 Descending FlightAware